owner,sensor,date,latitude,longitude,vertical_datum,sea_water_temperature,qcFlag
Anadarko,ioos:station:wmo:42399:1,2020-12-01T00:08:00Z,27.1117,-90.7640,100.6,21.5,11111222
Anadarko,ioos:station:wmo:42399:1,2020-12-01T00:28:00Z,27.1117,-90.7640,100.6,21.5,11111222
Anadarko,ioos:station:wmo:42399:1,2020-12-01T00:48:00Z,27.1117,-90.7640,100.6,21.5,11111222
Anadarko,ioos:station:wmo:42399:1,2020-12-01T01:08:00Z,27.1117,-90.7640,100.6,21.4,11111222
Anadarko,ioos:station:wmo:42399:1,2020-12-01T01:28:00Z,27.1117,-90.7640,100.6,21.5,11111222
Anadarko,ioos:station:wmo:42399:1,2020-12-01T01:48:00Z,27.1117,-90.7640,100.6,21.4,11111222
Anadarko,ioos:station:wmo:42399:1,2020-12-01T02:08:00Z,27.1117,-90.7640,100.6,21.4,11111222
Anadarko,ioos:station:wmo:42399:1,2020-12-01T02:28:00Z,27.1117,-90.7640,100.6,21.3,11111222
Anadarko,ioos:station:wmo:42399:1,2020-12-01T02:47:00Z,27.1117,-90.7640,100.6,21.3,11111222
Anadarko,ioos:station:wmo:42399:1,2020-12-01T03:07:00Z,27.1117,-90.7640,100.6,21.4,11111222
Anadarko,ioos:station:wmo:42399:1,2020-12-01T03:27:00Z,27.1117,-90.7640,100.6,21.4,11111222
Anadarko,ioos:station:wmo:42399:1,2020-12-01T03:47:00Z,27.1117,-90.7640,100.6,21.3,11111222
Anadarko,ioos:station:wmo:42399:1,2020-12-01T04:06:00Z,27.1117,-90.7640,100.6,21.3,11111222
Anadarko,ioos:station:wmo:42399:1,2020-12-01T04:26:00Z,27.1117,-90.7640,100.6,21.1,11111222
Anadarko,ioos:station:wmo:42399:1,2020-12-01T04:46:00Z,27.1117,-90.7640,100.6,21.1,11111222
Anadarko,ioos:station:wmo:42399:1,2020-12-01T05:06:00Z,27.1117,-90.7640,100.6,21.1,11111222
Anadarko,ioos:station:wmo:42399:1,2020-12-01T05:26:00Z,27.1117,-90.7640,100.6,21.1,11111222
Anadarko,ioos:station:wmo:42399:1,2020-12-01T05:46:00Z,27.1117,-90.7640,100.6,21.1,11111222
Anadarko,ioos:station:wmo:42399:1,2020-12-01T06:06:00Z,27.1117,-90.7640,100.6,21.0,11111222
Anadarko,ioos:station:wmo:42399:1,2020-12-01T06:26:00Z,27.1117,-90.7640,100.6,21.0,11111222
Anadarko,ioos:station:wmo:42399:1,2020-12-01T06:46:00Z,27.1117,-90.7640,100.6,20.9,11111222
Anadarko,ioos:station:wmo:42399:1,2020-12-01T07:06:00Z,27.1117,-90.7640,100.6,20.9,11111222
Anadarko,ioos:station:wmo:42399:1,2020-12-01T07:26:00Z,27.1117,-90.7640,100.6,20.9,11111222
Anadarko,ioos:station:wmo:42399:1,2020-12-01T07:46:00Z,27.1117,-90.7640,100.6,20.8,11111222
Anadarko,ioos:station:wmo:42399:1,2020-12-01T08:06:00Z,27.1117,-90.7640,100.6,20.8,11111222
Anadarko,ioos:station:wmo:42399:1,2020-12-01T08:26:00Z,27.1117,-90.7640,100.6,20.9,11111222
Anadarko,ioos:station:wmo:42399:1,2020-12-01T08:46:00Z,27.1117,-90.7640,100.6,21.0,11111222
Anadarko,ioos:station:wmo:42399:1,2020-12-01T09:05:00Z,27.1117,-90.7640,100.6,21.0,11111222
Anadarko,ioos:station:wmo:42399:1,2020-12-01T09:25:00Z,27.1117,-90.7640,100.6,21.1,11111222
Anadarko,ioos:station:wmo:42399:1,2020-12-01T09:45:00Z,27.1117,-90.7640,100.6,21.1,11111222
Anadarko,ioos:station:wmo:42399:1,2020-12-01T10:05:00Z,27.1117,-90.7640,100.6,21.1,11111222
Anadarko,ioos:station:wmo:42399:1,2020-12-01T10:25:00Z,27.1117,-90.7640,100.6,21.1,11111222
Anadarko,ioos:station:wmo:42399:1,2020-12-01T10:45:00Z,27.1117,-90.7640,100.6,21.2,11111222
Anadarko,ioos:station:wmo:42399:1,2020-12-01T11:05:00Z,27.1117,-90.7640,100.6,21.2,11111222
Anadarko,ioos:station:wmo:42399:1,2020-12-01T11:25:00Z,27.1117,-90.7640,100.6,21.2,11111222
Anadarko,ioos:station:wmo:42399:1,2020-12-01T11:45:00Z,27.1117,-90.7640,100.6,21.2,11111222
Anadarko,ioos:station:wmo:42399:1,2020-12-01T12:04:00Z,27.1117,-90.7640,100.6,21.2,11111222
Anadarko,ioos:station:wmo:42399:1,2020-12-01T12:24:00Z,27.1117,-90.7640,100.6,21.2,11111222
Anadarko,ioos:station:wmo:42399:1,2020-12-01T12:44:00Z,27.1117,-90.7640,100.6,21.2,11111222
Anadarko,ioos:station:wmo:42399:1,2020-12-01T13:04:00Z,27.1117,-90.7640,100.6,21.2,11111222
Anadarko,ioos:station:wmo:42399:1,2020-12-01T13:24:00Z,27.1117,-90.7640,100.6,21.2,11111222
Anadarko,ioos:station:wmo:42399:1,2020-12-01T13:44:00Z,27.1117,-90.7640,100.6,21.2,11111222
Anadarko,ioos:station:wmo:42399:1,2020-12-01T14:04:00Z,27.1117,-90.7640,100.6,21.2,11111222
Anadarko,ioos:station:wmo:42399:1,2020-12-01T14:24:00Z,27.1117,-90.7640,100.6,21.2,11111222
Anadarko,ioos:station:wmo:42399:1,2020-12-01T14:44:00Z,27.1117,-90.7640,100.6,21.1,11111222
Anadarko,ioos:station:wmo:42399:1,2020-12-01T15:04:00Z,27.1117,-90.7640,100.6,21.1,11111222
Anadarko,ioos:station:wmo:42399:1,2020-12-01T15:25:00Z,27.1117,-90.7640,100.6,21.1,11111222
Anadarko,ioos:station:wmo:42399:1,2020-12-01T15:45:00Z,27.1117,-90.7640,100.6,21.1,11111222
Anadarko,ioos:station:wmo:42399:1,2020-12-01T16:04:00Z,27.1117,-90.7640,100.6,21.1,11111222
Anadarko,ioos:station:wmo:42399:1,2020-12-01T16:24:00Z,27.1117,-90.7640,100.6,21.1,11111222
Anadarko,ioos:station:wmo:42399:1,2020-12-01T16:43:00Z,27.1117,-90.7640,100.6,21.1,11111222
Anadarko,ioos:station:wmo:42399:1,2020-12-01T17:03:00Z,27.1117,-90.7640,100.6,21.1,11111222
Anadarko,ioos:station:wmo:42399:1,2020-12-01T17:23:00Z,27.1117,-90.7640,100.6,21.0,11111222
Anadarko,ioos:station:wmo:42399:1,2020-12-01T17:43:00Z,27.1117,-90.7640,100.6,21.1,11111222
Anadarko,ioos:station:wmo:42399:1,2020-12-01T18:03:00Z,27.1117,-90.7640,100.6,21.1,11111222
Anadarko,ioos:station:wmo:42399:1,2020-12-01T18:23:00Z,27.1117,-90.7640,100.6,21.1,11111222
Anadarko,ioos:station:wmo:42399:1,2020-12-01T18:43:00Z,27.1117,-90.7640,100.6,21.1,11111222
Anadarko,ioos:station:wmo:42399:1,2020-12-01T19:03:00Z,27.1117,-90.7640,100.6,21.1,11111222
Anadarko,ioos:station:wmo:42399:1,2020-12-01T19:23:00Z,27.1117,-90.7640,100.6,21.1,11111222
Anadarko,ioos:station:wmo:42399:1,2020-12-01T19:43:00Z,27.1117,-90.7640,100.6,21.2,11111222
Anadarko,ioos:station:wmo:42399:1,2020-12-01T20:03:00Z,27.1117,-90.7640,100.6,21.2,11111222
Anadarko,ioos:station:wmo:42399:1,2020-12-01T20:22:00Z,27.1117,-90.7640,100.6,21.2,11111222
Anadarko,ioos:station:wmo:42399:1,2020-12-01T20:42:00Z,27.1117,-90.7640,100.6,21.2,11111222
Anadarko,ioos:station:wmo:42399:1,2020-12-01T21:02:00Z,27.1117,-90.7640,100.6,21.3,11111222
Anadarko,ioos:station:wmo:42399:1,2020-12-01T21:21:00Z,27.1117,-90.7640,100.6,21.3,11111222
Anadarko,ioos:station:wmo:42399:1,2020-12-01T21:41:00Z,27.1117,-90.7640,100.6,21.3,11111222
Anadarko,ioos:station:wmo:42399:1,2020-12-01T22:00:00Z,27.1117,-90.7640,100.6,21.3,11111222
Anadarko,ioos:station:wmo:42399:1,2020-12-01T22:20:00Z,27.1117,-90.7640,100.6,21.3,11111222
Anadarko,ioos:station:wmo:42399:1,2020-12-01T22:40:00Z,27.1117,-90.7640,100.6,21.3,11111222
Anadarko,ioos:station:wmo:42399:1,2020-12-01T23:00:00Z,27.1117,-90.7640,100.6,21.3,11111222
Anadarko,ioos:station:wmo:42399:1,2020-12-01T23:20:00Z,27.1117,-90.7640,100.6,21.4,11111222
Anadarko,ioos:station:wmo:42399:1,2020-12-01T23:39:00Z,27.1117,-90.7640,100.6,21.5,11111222
Anadarko,ioos:station:wmo:42399:1,2020-12-01T23:58:00Z,27.1117,-90.7640,100.6,21.5,11111222
Anadarko,ioos:station:wmo:42399:1,2020-12-02T00:18:00Z,27.1117,-90.7640,100.6,21.5,11111222
Anadarko,ioos:station:wmo:42399:1,2020-12-02T00:38:00Z,27.1117,-90.7640,100.6,21.6,11111222
Anadarko,ioos:station:wmo:42399:1,2020-12-02T00:57:00Z,27.1117,-90.7640,100.6,21.6,11111222
Anadarko,ioos:station:wmo:42399:1,2020-12-02T01:17:00Z,27.1117,-90.7640,100.6,21.6,11111222
Anadarko,ioos:station:wmo:42399:1,2020-12-02T01:37:00Z,27.1117,-90.7640,100.6,21.6,11111222
Anadarko,ioos:station:wmo:42399:1,2020-12-02T01:57:00Z,27.1117,-90.7640,100.6,21.6,11111222
Anadarko,ioos:station:wmo:42399:1,2020-12-02T02:17:00Z,27.1117,-90.7640,100.6,21.4,11111222
Anadarko,ioos:station:wmo:42399:1,2020-12-02T02:37:00Z,27.1117,-90.7640,100.6,21.3,11111222
Anadarko,ioos:station:wmo:42399:1,2020-12-02T02:57:00Z,27.1117,-90.7640,100.6,21.3,11111222
Anadarko,ioos:station:wmo:42399:1,2020-12-02T03:17:00Z,27.1117,-90.7640,100.6,21.3,11111222
Anadarko,ioos:station:wmo:42399:1,2020-12-02T03:37:00Z,27.1117,-90.7640,100.6,21.2,11111222
Anadarko,ioos:station:wmo:42399:1,2020-12-02T03:57:00Z,27.1117,-90.7640,100.6,21.1,11111222
Anadarko,ioos:station:wmo:42399:1,2020-12-02T04:17:00Z,27.1117,-90.7640,100.6,21.2,11111222
Anadarko,ioos:station:wmo:42399:1,2020-12-02T04:37:00Z,27.1117,-90.7640,100.6,21.2,11111222
Anadarko,ioos:station:wmo:42399:1,2020-12-02T04:57:00Z,27.1117,-90.7640,100.6,21.2,11111222
Anadarko,ioos:station:wmo:42399:1,2020-12-02T05:17:00Z,27.1117,-90.7640,100.6,21.3,11111222
Anadarko,ioos:station:wmo:42399:1,2020-12-02T05:37:00Z,27.1117,-90.7640,100.6,21.4,11111222
Anadarko,ioos:station:wmo:42399:1,2020-12-02T05:57:00Z,27.1117,-90.7640,100.6,21.4,11111222
Anadarko,ioos:station:wmo:42399:1,2020-12-02T06:17:00Z,27.1117,-90.7640,100.6,21.3,11111222
Anadarko,ioos:station:wmo:42399:1,2020-12-02T06:37:00Z,27.1117,-90.7640,100.6,21.3,11111222
Anadarko,ioos:station:wmo:42399:1,2020-12-02T06:57:00Z,27.1117,-90.7640,100.6,21.4,11111222
Anadarko,ioos:station:wmo:42399:1,2020-12-02T07:17:00Z,27.1117,-90.7640,100.6,21.3,11111222
Anadarko,ioos:station:wmo:42399:1,2020-12-02T07:37:00Z,27.1117,-90.7640,100.6,21.2,11111222
Anadarko,ioos:station:wmo:42399:1,2020-12-02T07:57:00Z,27.1117,-90.7640,100.6,21.1,11111222
Anadarko,ioos:station:wmo:42399:1,2020-12-02T08:17:00Z,27.1117,-90.7640,100.6,21.1,11111222
Anadarko,ioos:station:wmo:42399:1,2020-12-02T08:37:00Z,27.1117,-90.7640,100.6,21.0,11111222
Anadarko,ioos:station:wmo:42399:1,2020-12-02T08:57:00Z,27.1117,-90.7640,100.6,20.9,11111222
Anadarko,ioos:station:wmo:42399:1,2020-12-02T09:17:00Z,27.1117,-90.7640,100.6,20.8,11111222
Anadarko,ioos:station:wmo:42399:1,2020-12-02T09:37:00Z,27.1117,-90.7640,100.6,20.8,11111222
Anadarko,ioos:station:wmo:42399:1,2020-12-02T09:57:00Z,27.1117,-90.7640,100.6,20.8,11111222
Anadarko,ioos:station:wmo:42399:1,2020-12-02T10:17:00Z,27.1117,-90.7640,100.6,20.9,11111222
Anadarko,ioos:station:wmo:42399:1,2020-12-02T10:37:00Z,27.1117,-90.7640,100.6,20.8,11111222
Anadarko,ioos:station:wmo:42399:1,2020-12-02T10:57:00Z,27.1117,-90.7640,100.6,20.8,11111222
Anadarko,ioos:station:wmo:42399:1,2020-12-02T11:16:00Z,27.1117,-90.7640,100.6,20.8,11111222
Anadarko,ioos:station:wmo:42399:1,2020-12-02T11:36:00Z,27.1117,-90.7640,100.6,20.8,11111222
Anadarko,ioos:station:wmo:42399:1,2020-12-02T11:56:00Z,27.1117,-90.7640,100.6,20.9,11111222
Anadarko,ioos:station:wmo:42399:1,2020-12-02T12:16:00Z,27.1117,-90.7640,100.6,20.9,11111222
Anadarko,ioos:station:wmo:42399:1,2020-12-02T12:35:00Z,27.1117,-90.7640,100.6,20.8,11111222
Anadarko,ioos:station:wmo:42399:1,2020-12-02T12:55:00Z,27.1117,-90.7640,100.6,20.7,11111222
Anadarko,ioos:station:wmo:42399:1,2020-12-02T13:15:00Z,27.1117,-90.7640,100.6,20.7,11111222
Anadarko,ioos:station:wmo:42399:1,2020-12-02T13:35:00Z,27.1117,-90.7640,100.6,20.7,11111222
Anadarko,ioos:station:wmo:42399:1,2020-12-02T13:55:00Z,27.1117,-90.7640,100.6,20.7,11111222
Anadarko,ioos:station:wmo:42399:1,2020-12-02T14:15:00Z,27.1117,-90.7640,100.6,20.8,11111222
Anadarko,ioos:station:wmo:42399:1,2020-12-02T14:35:00Z,27.1117,-90.7640,100.6,20.8,11111222
Anadarko,ioos:station:wmo:42399:1,2020-12-02T14:55:00Z,27.1117,-90.7640,100.6,20.6,11111222
Anadarko,ioos:station:wmo:42399:1,2020-12-02T15:15:00Z,27.1117,-90.7640,100.6,20.6,11111222
Anadarko,ioos:station:wmo:42399:1,2020-12-02T15:35:00Z,27.1117,-90.7640,100.6,20.7,11111222
Anadarko,ioos:station:wmo:42399:1,2020-12-02T15:55:00Z,27.1117,-90.7640,100.6,20.7,11111222
Anadarko,ioos:station:wmo:42399:1,2020-12-02T16:15:00Z,27.1117,-90.7640,100.6,20.7,11111222
Anadarko,ioos:station:wmo:42399:1,2020-12-02T16:35:00Z,27.1117,-90.7640,100.6,20.7,11111222
Anadarko,ioos:station:wmo:42399:1,2020-12-02T16:55:00Z,27.1117,-90.7640,100.6,20.6,11111222
Anadarko,ioos:station:wmo:42399:1,2020-12-02T17:15:00Z,27.1117,-90.7640,100.6,20.5,11111222
Anadarko,ioos:station:wmo:42399:1,2020-12-02T17:35:00Z,27.1117,-90.7640,100.6,20.4,11111222
Anadarko,ioos:station:wmo:42399:1,2020-12-02T17:55:00Z,27.1117,-90.7640,100.6,20.4,11111222
Anadarko,ioos:station:wmo:42399:1,2020-12-02T18:15:00Z,27.1117,-90.7640,100.6,20.5,11111222
Anadarko,ioos:station:wmo:42399:1,2020-12-02T18:35:00Z,27.1117,-90.7640,100.6,20.5,11111222
Anadarko,ioos:station:wmo:42399:1,2020-12-02T18:55:00Z,27.1117,-90.7640,100.6,20.6,11111222
Anadarko,ioos:station:wmo:42399:1,2020-12-02T19:15:00Z,27.1117,-90.7640,100.6,20.6,11111222
Anadarko,ioos:station:wmo:42399:1,2020-12-02T19:35:00Z,27.1117,-90.7640,100.6,20.8,11111222
Anadarko,ioos:station:wmo:42399:1,2020-12-02T19:55:00Z,27.1117,-90.7640,100.6,20.9,11111222
Anadarko,ioos:station:wmo:42399:1,2020-12-02T20:15:00Z,27.1117,-90.7640,100.6,20.9,11111222
Anadarko,ioos:station:wmo:42399:1,2020-12-02T20:35:00Z,27.1117,-90.7640,100.6,21.0,11111222
Anadarko,ioos:station:wmo:42399:1,2020-12-02T20:55:00Z,27.1117,-90.7640,100.6,21.1,11111222
Anadarko,ioos:station:wmo:42399:1,2020-12-02T21:15:00Z,27.1117,-90.7640,100.6,21.3,11111222
Anadarko,ioos:station:wmo:42399:1,2020-12-02T21:35:00Z,27.1117,-90.7640,100.6,21.3,11111222
Anadarko,ioos:station:wmo:42399:1,2020-12-02T21:55:00Z,27.1117,-90.7640,100.6,21.4,11111222
Anadarko,ioos:station:wmo:42399:1,2020-12-02T22:15:00Z,27.1117,-90.7640,100.6,21.3,11111222
Anadarko,ioos:station:wmo:42399:1,2020-12-02T22:35:00Z,27.1117,-90.7640,100.6,21.4,11111222
Anadarko,ioos:station:wmo:42399:1,2020-12-02T22:55:00Z,27.1117,-90.7640,100.6,21.4,11111222
Anadarko,ioos:station:wmo:42399:1,2020-12-02T23:15:00Z,27.1117,-90.7640,100.6,21.4,11111222
Anadarko,ioos:station:wmo:42399:1,2020-12-02T23:35:00Z,27.1117,-90.7640,100.6,21.4,11111222
Anadarko,ioos:station:wmo:42399:1,2020-12-02T23:55:00Z,27.1117,-90.7640,100.6,21.5,11111222
Anadarko,ioos:station:wmo:42399:1,2020-12-03T00:15:00Z,27.1117,-90.7640,100.6,21.7,11111222
Anadarko,ioos:station:wmo:42399:1,2020-12-03T00:35:00Z,27.1117,-90.7640,100.6,21.7,11111222
Anadarko,ioos:station:wmo:42399:1,2020-12-03T00:54:00Z,27.1117,-90.7640,100.6,21.5,11111222
Anadarko,ioos:station:wmo:42399:1,2020-12-03T01:14:00Z,27.1117,-90.7640,100.6,21.6,11111222
Anadarko,ioos:station:wmo:42399:1,2020-12-03T01:34:00Z,27.1117,-90.7640,100.6,21.6,11111222
Anadarko,ioos:station:wmo:42399:1,2020-12-03T01:53:00Z,27.1117,-90.7640,100.6,21.5,11111222
Anadarko,ioos:station:wmo:42399:1,2020-12-03T02:13:00Z,27.1117,-90.7640,100.6,21.5,11111222
Anadarko,ioos:station:wmo:42399:1,2020-12-03T02:33:00Z,27.1117,-90.7640,100.6,21.6,11111222
Anadarko,ioos:station:wmo:42399:1,2020-12-03T02:52:00Z,27.1117,-90.7640,100.6,21.5,11111222
Anadarko,ioos:station:wmo:42399:1,2020-12-03T03:12:00Z,27.1117,-90.7640,100.6,21.3,11111222
Anadarko,ioos:station:wmo:42399:1,2020-12-03T03:32:00Z,27.1117,-90.7640,100.6,21.1,11111222
Anadarko,ioos:station:wmo:42399:1,2020-12-03T03:52:00Z,27.1117,-90.7640,100.6,21.1,11111222
Anadarko,ioos:station:wmo:42399:1,2020-12-03T04:12:00Z,27.1117,-90.7640,100.6,21.1,11111222
Anadarko,ioos:station:wmo:42399:1,2020-12-03T04:32:00Z,27.1117,-90.7640,100.6,21.1,11111222
Anadarko,ioos:station:wmo:42399:1,2020-12-03T04:52:00Z,27.1117,-90.7640,100.6,21.2,11111222
Anadarko,ioos:station:wmo:42399:1,2020-12-03T05:12:00Z,27.1117,-90.7640,100.6,21.2,11111222
Anadarko,ioos:station:wmo:42399:1,2020-12-03T05:32:00Z,27.1117,-90.7640,100.6,21.1,11111222
Anadarko,ioos:station:wmo:42399:1,2020-12-03T05:52:00Z,27.1117,-90.7640,100.6,21.2,11111222
Anadarko,ioos:station:wmo:42399:1,2020-12-03T06:12:00Z,27.1117,-90.7640,100.6,21.2,11111222
Anadarko,ioos:station:wmo:42399:1,2020-12-03T06:32:00Z,27.1117,-90.7640,100.6,21.3,11111222
Anadarko,ioos:station:wmo:42399:1,2020-12-03T06:51:00Z,27.1117,-90.7640,100.6,21.2,11111222
Anadarko,ioos:station:wmo:42399:1,2020-12-03T07:10:00Z,27.1117,-90.7640,100.6,21.1,11111222
Anadarko,ioos:station:wmo:42399:1,2020-12-03T07:30:00Z,27.1117,-90.7640,100.6,21.0,11111222
Anadarko,ioos:station:wmo:42399:1,2020-12-03T07:49:00Z,27.1117,-90.7640,100.6,21.1,11111222
Anadarko,ioos:station:wmo:42399:1,2020-12-03T08:09:00Z,27.1117,-90.7640,100.6,21.0,11111222
Anadarko,ioos:station:wmo:42399:1,2020-12-03T08:29:00Z,27.1117,-90.7640,100.6,21.0,11111222
Anadarko,ioos:station:wmo:42399:1,2020-12-03T08:49:00Z,27.1117,-90.7640,100.6,20.9,11111222
Anadarko,ioos:station:wmo:42399:1,2020-12-03T09:09:00Z,27.1117,-90.7640,100.6,20.8,11111222
Anadarko,ioos:station:wmo:42399:1,2020-12-03T09:29:00Z,27.1117,-90.7640,100.6,20.9,11111222
Anadarko,ioos:station:wmo:42399:1,2020-12-03T09:49:00Z,27.1117,-90.7640,100.6,20.9,11111222
Anadarko,ioos:station:wmo:42399:1,2020-12-03T10:09:00Z,27.1117,-90.7640,100.6,20.9,11111222
Anadarko,ioos:station:wmo:42399:1,2020-12-03T10:29:00Z,27.1117,-90.7640,100.6,20.8,11111222
Anadarko,ioos:station:wmo:42399:1,2020-12-03T10:49:00Z,27.1117,-90.7640,100.6,20.9,11111222
Anadarko,ioos:station:wmo:42399:1,2020-12-03T11:09:00Z,27.1117,-90.7640,100.6,20.9,11111222
Anadarko,ioos:station:wmo:42399:1,2020-12-03T11:29:00Z,27.1117,-90.7640,100.6,20.9,11111222
Anadarko,ioos:station:wmo:42399:1,2020-12-03T11:49:00Z,27.1117,-90.7640,100.6,20.9,11111222
Anadarko,ioos:station:wmo:42399:1,2020-12-03T12:09:00Z,27.1117,-90.7640,100.6,20.9,11111222
Anadarko,ioos:station:wmo:42399:1,2020-12-03T12:29:00Z,27.1117,-90.7640,100.6,20.9,11111222
Anadarko,ioos:station:wmo:42399:1,2020-12-03T12:49:00Z,27.1117,-90.7640,100.6,20.9,11111222
Anadarko,ioos:station:wmo:42399:1,2020-12-03T13:09:00Z,27.1117,-90.7640,100.6,20.9,11111222
Anadarko,ioos:station:wmo:42399:1,2020-12-03T13:29:00Z,27.1117,-90.7640,100.6,20.9,11111222
Anadarko,ioos:station:wmo:42399:1,2020-12-03T13:49:00Z,27.1117,-90.7640,100.6,21.0,11111222
Anadarko,ioos:station:wmo:42399:1,2020-12-03T14:09:00Z,27.1117,-90.7640,100.6,21.1,11111222
Anadarko,ioos:station:wmo:42399:1,2020-12-03T14:29:00Z,27.1117,-90.7640,100.6,20.9,11111222
Anadarko,ioos:station:wmo:42399:1,2020-12-03T14:49:00Z,27.1117,-90.7640,100.6,21.0,11111222
Anadarko,ioos:station:wmo:42399:1,2020-12-03T15:09:00Z,27.1117,-90.7640,100.6,21.0,11111222
Anadarko,ioos:station:wmo:42399:1,2020-12-03T15:29:00Z,27.1117,-90.7640,100.6,20.9,11111222
Anadarko,ioos:station:wmo:42399:1,2020-12-03T15:49:00Z,27.1117,-90.7640,100.6,20.8,11111222
Anadarko,ioos:station:wmo:42399:1,2020-12-03T16:09:00Z,27.1117,-90.7640,100.6,20.8,11111222
Anadarko,ioos:station:wmo:42399:1,2020-12-03T16:29:00Z,27.1117,-90.7640,100.6,20.8,11111222
Anadarko,ioos:station:wmo:42399:1,2020-12-03T16:49:00Z,27.1117,-90.7640,100.6,20.8,11111222
Anadarko,ioos:station:wmo:42399:1,2020-12-03T17:09:00Z,27.1117,-90.7640,100.6,20.8,11111222
Anadarko,ioos:station:wmo:42399:1,2020-12-03T17:29:00Z,27.1117,-90.7640,100.6,20.8,11111222
Anadarko,ioos:station:wmo:42399:1,2020-12-03T17:49:00Z,27.1117,-90.7640,100.6,20.8,11111222
Anadarko,ioos:station:wmo:42399:1,2020-12-03T18:09:00Z,27.1117,-90.7640,100.6,20.7,11111222
Anadarko,ioos:station:wmo:42399:1,2020-12-03T18:29:00Z,27.1117,-90.7640,100.6,20.7,11111222
Anadarko,ioos:station:wmo:42399:1,2020-12-03T18:49:00Z,27.1117,-90.7640,100.6,20.7,11111222
Anadarko,ioos:station:wmo:42399:1,2020-12-03T19:09:00Z,27.1117,-90.7640,100.6,20.8,11111222
Anadarko,ioos:station:wmo:42399:1,2020-12-03T19:29:00Z,27.1117,-90.7640,100.6,20.9,11111222
Anadarko,ioos:station:wmo:42399:1,2020-12-03T19:49:00Z,27.1117,-90.7640,100.6,20.9,11111222
Anadarko,ioos:station:wmo:42399:1,2020-12-03T20:09:00Z,27.1117,-90.7640,100.6,21.0,11111222
Anadarko,ioos:station:wmo:42399:1,2020-12-03T20:29:00Z,27.1117,-90.7640,100.6,21.0,11111222
Anadarko,ioos:station:wmo:42399:1,2020-12-03T20:49:00Z,27.1117,-90.7640,100.6,21.0,11111222
Anadarko,ioos:station:wmo:42399:1,2020-12-03T21:09:00Z,27.1117,-90.7640,100.6,21.0,11111222
Anadarko,ioos:station:wmo:42399:1,2020-12-03T21:29:00Z,27.1117,-90.7640,100.6,21.0,11111222
Anadarko,ioos:station:wmo:42399:1,2020-12-03T21:49:00Z,27.1117,-90.7640,100.6,21.0,11111222
Anadarko,ioos:station:wmo:42399:1,2020-12-03T22:08:00Z,27.1117,-90.7640,100.6,21.0,11111222
Anadarko,ioos:station:wmo:42399:1,2020-12-03T22:28:00Z,27.1117,-90.7640,100.6,21.1,11111222
Anadarko,ioos:station:wmo:42399:1,2020-12-03T22:48:00Z,27.1117,-90.7640,100.6,21.1,11111222
Anadarko,ioos:station:wmo:42399:1,2020-12-03T23:08:00Z,27.1117,-90.7640,100.6,21.1,11111222
Anadarko,ioos:station:wmo:42399:1,2020-12-03T23:27:00Z,27.1117,-90.7640,100.6,21.2,11111222
Anadarko,ioos:station:wmo:42399:1,2020-12-03T23:47:00Z,27.1117,-90.7640,100.6,21.1,11111222
Anadarko,ioos:station:wmo:42399:1,2020-12-04T00:07:00Z,27.1117,-90.7640,100.6,21.0,11111222
Anadarko,ioos:station:wmo:42399:1,2020-12-04T00:27:00Z,27.1117,-90.7640,100.6,20.9,11111222
Anadarko,ioos:station:wmo:42399:1,2020-12-04T00:47:00Z,27.1117,-90.7640,100.6,20.8,11111222
Anadarko,ioos:station:wmo:42399:1,2020-12-04T01:06:00Z,27.1117,-90.7640,100.6,20.7,11111222
Anadarko,ioos:station:wmo:42399:1,2020-12-04T01:26:00Z,27.1117,-90.7640,100.6,20.6,11111222
Anadarko,ioos:station:wmo:42399:1,2020-12-04T01:45:00Z,27.1117,-90.7640,100.6,20.7,11111222
Anadarko,ioos:station:wmo:42399:1,2020-12-04T02:05:00Z,27.1117,-90.7640,100.6,20.7,11111222
Anadarko,ioos:station:wmo:42399:1,2020-12-04T02:25:00Z,27.1117,-90.7640,100.6,20.7,11111222
Anadarko,ioos:station:wmo:42399:1,2020-12-04T02:45:00Z,27.1117,-90.7640,100.6,20.8,11111222
Anadarko,ioos:station:wmo:42399:1,2020-12-04T03:05:00Z,27.1117,-90.7640,100.6,20.9,11111222
Anadarko,ioos:station:wmo:42399:1,2020-12-04T03:24:00Z,27.1117,-90.7640,100.6,20.9,11111222
Anadarko,ioos:station:wmo:42399:1,2020-12-04T03:44:00Z,27.1117,-90.7640,100.6,20.9,11111222
Anadarko,ioos:station:wmo:42399:1,2020-12-04T04:04:00Z,27.1117,-90.7640,100.6,20.9,11111222
Anadarko,ioos:station:wmo:42399:1,2020-12-04T04:24:00Z,27.1117,-90.7640,100.6,20.9,11111222
Anadarko,ioos:station:wmo:42399:1,2020-12-04T04:44:00Z,27.1117,-90.7640,100.6,20.7,11111222
Anadarko,ioos:station:wmo:42399:1,2020-12-04T05:04:00Z,27.1117,-90.7640,100.6,20.6,11111222
Anadarko,ioos:station:wmo:42399:1,2020-12-04T05:24:00Z,27.1117,-90.7640,100.6,20.7,11111222
Anadarko,ioos:station:wmo:42399:1,2020-12-04T05:44:00Z,27.1117,-90.7640,100.6,20.7,11111222
Anadarko,ioos:station:wmo:42399:1,2020-12-04T06:04:00Z,27.1117,-90.7640,100.6,20.6,11111222
Anadarko,ioos:station:wmo:42399:1,2020-12-04T06:24:00Z,27.1117,-90.7640,100.6,20.8,11111222
Anadarko,ioos:station:wmo:42399:1,2020-12-04T06:44:00Z,27.1117,-90.7640,100.6,20.8,11111222
Anadarko,ioos:station:wmo:42399:1,2020-12-04T07:04:00Z,27.1117,-90.7640,100.6,20.9,11111222
Anadarko,ioos:station:wmo:42399:1,2020-12-04T07:24:00Z,27.1117,-90.7640,100.6,21.1,11111222
Anadarko,ioos:station:wmo:42399:1,2020-12-04T07:44:00Z,27.1117,-90.7640,100.6,21.0,11111222
Anadarko,ioos:station:wmo:42399:1,2020-12-04T08:04:00Z,27.1117,-90.7640,100.6,20.9,11111222
Anadarko,ioos:station:wmo:42399:1,2020-12-04T08:24:00Z,27.1117,-90.7640,100.6,20.8,11111222
Anadarko,ioos:station:wmo:42399:1,2020-12-04T08:44:00Z,27.1117,-90.7640,100.6,20.9,11111222
Anadarko,ioos:station:wmo:42399:1,2020-12-04T09:04:00Z,27.1117,-90.7640,100.6,20.8,11111222
Anadarko,ioos:station:wmo:42399:1,2020-12-04T09:24:00Z,27.1117,-90.7640,100.6,20.8,11111222
Anadarko,ioos:station:wmo:42399:1,2020-12-04T09:44:00Z,27.1117,-90.7640,100.6,20.8,11111222
Anadarko,ioos:station:wmo:42399:1,2020-12-04T10:04:00Z,27.1117,-90.7640,100.6,20.8,11111222
Anadarko,ioos:station:wmo:42399:1,2020-12-04T10:24:00Z,27.1117,-90.7640,100.6,20.8,11111222
Anadarko,ioos:station:wmo:42399:1,2020-12-04T10:44:00Z,27.1117,-90.7640,100.6,20.8,11111222
Anadarko,ioos:station:wmo:42399:1,2020-12-04T11:04:00Z,27.1117,-90.7640,100.6,20.8,11111222
Anadarko,ioos:station:wmo:42399:1,2020-12-04T11:24:00Z,27.1117,-90.7640,100.6,20.8,11111222
Anadarko,ioos:station:wmo:42399:1,2020-12-04T11:44:00Z,27.1117,-90.7640,100.6,20.7,11111222
Anadarko,ioos:station:wmo:42399:1,2020-12-04T12:04:00Z,27.1117,-90.7640,100.6,20.8,11111222
Anadarko,ioos:station:wmo:42399:1,2020-12-04T12:24:00Z,27.1117,-90.7640,100.6,20.8,11111222
Anadarko,ioos:station:wmo:42399:1,2020-12-04T12:44:00Z,27.1117,-90.7640,100.6,20.8,11111222
Anadarko,ioos:station:wmo:42399:1,2020-12-04T13:04:00Z,27.1117,-90.7640,100.6,20.8,11111222